Location: Janeiro
(34.9957°N, 76.7652°W)
Time: 10:53:30
(UTC+00:00)

NOAA 15 - Pass Details

Date: 14 December 2019
Orbit: 798 x 812 km, 98.7° (Epoch: 27 January)

Event Time Altitude Azimuth Distance (km) Brightness Sun altitude
Rises 23:33:23 0° 161° (SSE) 3,300 7.8 -19.2°
Reaches altitude 10° 23:35:42 10° 160° (SSE) 2,371 7.0 -19.7°
Maximum altitude 23:40:56 77° 75° (ENE) 825 4.4 -20.7°
Drops below altitude 10° 23:46:11 10° 350° (N) 2,378 7.0 -21.8°
Sets 23:48:31 0° 349° (N) 3,311 7.8 -22.2°
